Regional Weather Roundup
Issued by NWS

Home | Current Version | Previous Version | Text Only | Print | Product List | Glossary On
Versions: 1 2 3 4 5 6 7 8 9 10 11 12 13 14 15 16 17 18 19 20 21 22 23 24 25 26 27 28 29 30 31 32 33 34 35 36 37 38 39 40 41 42 43 44 45 46 47 48 49 50
000
ASUS43 KTOP 211808
RWRKS

WEATHER ROUNDUP FOR KANSAS
NATIONAL WEATHER SERVICE GOODLAND KS
100 PM CDT TUE OCT 21 2014

NOTE:  "FAIR" INDICATES FEW OR NO CLOUDS BELOW 12,000 FEET WITH NO
SIGNIFICANT WEATHER AND/OR OBSTRUCTIONS TO VISIBILITY.

KSZ001>006-013>018-027>032-041>047-211900-
NORTHWEST KANSAS

CITY           SKY/WX    TMP DP  RH WIND       PRES   REMARKS
GOODLAND       SUNNY     66  55  67 S14       30.03F
6HR MIN TEMP:  49; 6HR MAX TEMP:  66;

HAYS           SUNNY     72  57  60 S16       30.06F
HILL CITY        N/A     75  59  57 SE14      30.05F
6HR MIN TEMP:  39; 6HR MAX TEMP:  75;

RUSSELL        SUNNY     73  60  63 SE15      30.05F
6HR MIN TEMP:  47; 6HR MAX TEMP:  73;

$$

KSZ061>065-074>080-084>089-211900-
SOUTHWEST KANSAS

CITY           SKY/WX    TMP DP  RH WIND       PRES   REMARKS
DODGE CITY     SUNNY     73  57  57 S7        30.07F
6HR MIN TEMP:  53; 6HR MAX TEMP:  73;

ELKHART          N/A     74  49  41 SW12        N/A
GARDEN CITY    SUNNY     70  55  59 S9        30.06F
6HR MIN TEMP:  45; 6HR MAX TEMP:  70;

GREAT BEND     SUNNY     75  61  60 SE14G20   30.05F
LIBERAL        SUNNY     75  55  50 S12       30.09F
PRATT          SUNNY     73  55  53 S9        30.08F
$$

KSZ066>073-081>083-090>101-211900-
SOUTHEAST KANSAS

CITY           SKY/WX    TMP DP  RH WIND       PRES   REMARKS
CHANUTE        MOSUNNY   73  55  53 SE6       30.12F
6HR MIN TEMP:  43; 6HR MAX TEMP:  74;

COFFEYVILLE    SUNNY     75  58  55 S10       30.10F
6HR MIN TEMP:  49; 6HR MAX TEMP:  75;

HUTCHINSON     PTSUNNY   78  56  46 SE15      30.08F
6HR MIN TEMP:  48; 6HR MAX TEMP:  78;

MEDICINE LODGE   N/A     76  59  55 S7        30.06F
NEWTON         SUNNY     75  48  38 SE13      30.12F
PARSONS        SUNNY     74  57  55 SE5       30.12F
6HR MIN TEMP:  45; 6HR MAX TEMP:  75;

WICHITA INTL   MOSUNNY   77  56  48 S14       30.08F
6HR MIN TEMP:  54; 6HR MAX TEMP:  77;

WICHITA JABRA  SUNNY     76  52  43 SE13      30.09F
6HR MIN TEMP:  48; 6HR MAX TEMP:  77;

WICHITA MCCONL SUNNY     77  55  46 SE15G23   30.09F
WINFIELD       SUNNY     75  58  55 SE12      30.09F
6HR MIN TEMP:  53; 6HR MAX TEMP:  76;

$$

KSZ007>012-019>026-033>040-048>060-102>105-211900-
NORTHEAST KANSAS

CITY           SKY/WX    TMP DP  RH WIND       PRES   REMARKS
CONCORDIA      SUNNY     73  51  46 S13       30.08F
6HR MIN TEMP:  41; 6HR MAX TEMP:  74;

EMPORIA        SUNNY     73  49  42 SE8       30.11F
6HR MIN TEMP:  42; 6HR MAX TEMP:  73;

LAWRENCE       SUNNY     71  43  36 VRB3      30.12F
6HR MIN TEMP:  35; 6HR MAX TEMP:  72;

MANHATTAN      SUNNY     76  47  35 VRB3      30.09F
6HR MIN TEMP:  37; 6HR MAX TEMP:  76;

MARYSVILLE     SUNNY     73  46  38 S7        30.09F
OLATHE IND     SUNNY     71  42  35 VRB3      30.13F
6HR MIN TEMP:  43; 6HR MAX TEMP:  72;

OLATHE EXE     SUNNY     72  42  34 MISG      30.12F
6HR MIN TEMP:  45; 6HR MAX TEMP:  72;

SALINA         MOSUNNY   76  53  44 S12       30.08F
6HR MIN TEMP:  43; 6HR MAX TEMP:  76;

TOPEKA BILLARD SUNNY     74  45  35 SE6       30.11F
6HR MIN TEMP:  38; 6HR MAX TEMP:  75;

TOPEKA FORBES  SUNNY     74  44  34 VRB5      30.11F
6HR MIN TEMP:  38; 6HR MAX TEMP:  74;

$$



USA.gov is the U.S. government's official web portal to all federal, state and local government web resources and services.